Regional Weather Roundup
Issued by NWS Newport/Morehead, NC

Current Version | Previous Version | Text Only | Print | Product List | Glossary On
Versions: 1 2 3 4 5 6 7 8 9 10 11 12 13 14 15 16 17 18 19 20 21 22 23 24 25 26 27 28 29 30 31 32 33 34 35 36 37 38 39 40 41 42 43 44 45 46 47 48 49 50
000 ASUS42 KMHX 221625 RWRMHX WEATHER ROUNDUP FOR EASTERN NORTH CAROLINA NATIONAL WEATHER SERVICE NEWPORT/MOREHEAD CITY NC 1100 AM EST SUN JAN 22 2017 NOTE: "FAIR" INDICATES FEW OR NO CLOUDS BELOW 12,000 FEET WITH NO SIGNIFICANT WEATHER AND/OR OBSTRUCTIONS TO VISIBILITY NCZ015>017-031-032-045>047-102-103-221700- NORTH COAST CITY SKY/WX TMP DP RH WIND PRES REMARKS EDENTON CLOUDY 57 57 100 CALM 29.65F ELIZABETH CITY CLOUDY 54 54 100 W3 29.65F KITTY HAWK NOT AVBL MANTEO CLOUDY 56 56 100 N6 29.64F FOG $$ NCZ045>047-081-094-103-104-221700- CENTRAL COAST CITY SKY/WX TMP DP RH WIND PRES REMARKS FRISCO CLOUDY 59 57 93 SW7 29.65F FOG $$ NCZ095-097-098-100-101-221700- SOUTHERN COAST CITY SKY/WX TMP DP RH WIND PRES REMARKS BEAUFORT LGT RAIN 59 58 96 S3 29.65F CEDAR ISLAND NOT AVBL JACKSONVILLE PTSUNNY 60 60 100 CALM 29.64F PINEY ISLAND LGT RAIN N/A N/A N/A S3 29.64F WILMINGTON LGT RAIN 59 59 100 E7 29.59F $$ NCZ011>013-027>030-043-044-078>080-089-090>093-098-221700- COASTAL PLAIN CITY SKY/WX TMP DP RH WIND PRES REMARKS AHOSKIE N/A 51 51 99 CALM 29.66F FOG CLINTON CLOUDY 61 61 100 CALM 29.57F ELIZABETHTOWN CLOUDY 60 60 100 CALM 29.58F GOLDSBORO CLOUDY 59 59 100 E6 29.58F GREENVILLE CLOUDY 57 55 94 N6 29.67F FOG HAVELOCK LGT RAIN 61 59 93 SW3 29.66F KENANSVILLE CLOUDY 61 59 94 CALM 29.62F KINSTON CLOUDY 61 59 94 NW6 29.64F NEW BERN CLOUDY 62 59 90 W3 29.65F RICHLANDS CLOUDY 60 59 96 S6 29.65F ROCKY MOUNT CLOUDY 54 54 100 N7 29.62F WASHINGTON CLOUDY 60 58 94 W5 N/A WHITEVILLE CLOUDY 60 59 96 SW5 29.62R $$ AMZ130-135-150-152-154-156-158-170-250-252-270-ANZ085-086-088-633-658-670-221700- MARINE OBSERVATIONS STATION/POSITION TIME TEMP WIND PRES WAVE SWELL AIR SEA DIR/SP/G HT/PER HT/PER (UTC) (F) (DEG/KT/KT) (MB) (FT/S) (FT/S) CHESAPEAKE LIGHT NOT AVBL 64 E VA BEACH 1550 52 57 250/ 17/ 19 1003.5 5/12 5/12 DUCK 1600 53 45 220/ 4/ 5 1003.4 2 E DUCK 1600 47 N/A 3/12 2/12 OREGON INLET 1600 270/ 1/ 3 N/A 13E OREGON INLT NOT AVBL HATTERAS CG 1600 58 54 210/ 5/ 9 1004.0 DIAMOND BUOY 1550 64 73 280/ 14/ 17 1004.4 5/12 3/12 CAPE LOOKOUT 1600 59 190/ 6/ 6 1004.2 BEAUFORT LAB 1600 57 52 190/ 2/ 5 1002.9 30 SE NEW RVR IN 1608 58 64 310/ 8/ 10 1005.3 30 SE NEW RVR IN 1543 64 N/A 4/ 7 2/13 27 SE WRIGHTSVLE 1608 61 67 310/ 8/ 14 1005.1 5 SE WRIGHTSVLE 1608 56 160/ 4/ 8 1003.1 225 S CAPE HAT 1550 73 71 200/ 17/ 21 1007.7 7/ 7 3/13 41 SE CHARLESTON 1550 66 68 280/ 8/ 10 1004.4 4/ 5 3/ 5 $$

USA.gov is the U.S. government's official web portal to all federal, state and local government web resources and services.